Detalhes do Voo

Voltar

 DETALHES DO VÔO

Piloto: GLD166 Carlos M. Aeronave: C182 RG II Distância: 299NM
Origem: SNBI Destino: SBRR Duração: 1.92
Validação: Validado Tipo: Charter Matrícula: PT-GLD
ZFW: 2174 Block Fuel/Init FOB 100/5 Combustível em Voo 100
Passageiros: 1 Carga: 0 Alternativo: SNBI
Hora da Decolagem: 1423 Velocidade de Cruzeiro: 150 Nível de Voo: A035
Regra Visual: VFR ICAO da Aeronave: C182 Unidade de Peso: Kg
Data: 23/04/2026 Observação: GOLD ACARS Rede: VATSIM
Acidentou?: Não Comentários do Validador: Pontuação do Voo 78.8568

 ROTA

ROTA 0326S04404W 0301S04325W
REMARKS OPR/GOLD VIRTUAL AIRLINES PER/A RMK/FROM SNSG RMK/PIC GLD166 RMK/VATCAREER

 PENALIDADES DO VOO

Para entender como cada item é pontuado, consulte as regras de avaliação.

Nenhuma penalidade registrada para este voo.

 ANÁLISE DO POUSO

Vento durante o pouso: 269º/1 kt Proa durante o pouso: 267
V/S do Pouso: -203 ft/min IAS do Pouso: 59 kt
Força G no pouso: 1.24 G Bank no pouso: 0.44
Pitch no Pouso 2.41 Flaps no Pouso 100
Nav Lights OFF Landing Lights ON
Beacon Lights ON Strobe Lights OFF

 MAPA DO VOO

 PERFIL VERTICAL DO VOO

 EVENTOS PRINCIPAIS DO VOO

DATAEVENTOIASALTITUDE
2026-04-23 14:23:38 GOLD ACARS VERSION 3.3.6.900
2026-04-23 14:23:38 BOARDING072
2026-04-23 14:23:38 FLAP 33%072
2026-04-23 14:23:39 LITTLENAVMAP ON072
2026-04-23 14:24:24 STARTING ENGINE 1072
2026-04-23 14:24:24 BEACON LIGHT OFF & ENGINE ON072
2026-04-23 14:24:32 BCN LIGHTS ON072
2026-04-23 14:24:33 TAXI LIGHTS ON072
2026-04-23 14:25:12 TAXI TO THE RWY469
2026-04-23 14:25:39 LND LIGHTS ON2674
2026-04-23 14:25:53 TAXI SPEED ABOVE 25 KTS5774
2026-04-23 14:26:12 CLIMBING10672
2026-04-23 14:26:15 FLAP 0%98184
2026-04-23 14:26:17 GEAR UP97237
2026-04-23 14:26:28 AP ENGAGED110367
2026-04-23 14:30:58 CRUISE1413409
2026-04-23 16:14:42 LANDING1631604
2026-04-23 16:16:11 AP DISENGAGED1471411
2026-04-23 16:16:19 GEAR DOWN1381256
2026-04-23 16:16:21 FLAP 100%1421122
2026-04-23 16:16:28 CLIMBING116741
2026-04-23 16:16:29 CRUISE106750
2026-04-23 16:16:29 LANDING105745
2026-04-23 16:17:19 LANDED AIRPORT [SBRR]5929
2026-04-23 16:17:19 LANDED - VS: -203 ft/min5927
2026-04-23 16:18:01 TAXI TO THE GATE2937
2026-04-23 16:18:13 LND LIGHTS OFF2337
2026-04-23 16:18:17 FLAP 66%1837
2026-04-23 16:18:40 AT THE GATE037
2026-04-23 16:18:43 STOPPING ENGINE 1037
2026-04-23 16:18:54 TAXI LIGHTS OFF037
2026-04-23 16:18:55 BCN LIGHTS OFF037
2026-04-23 16:18:59 LANDED NOT IN THE PLANNED AIRPORT [SSRS] - [lat: -2,75926933106905] - [long: -42,8057415819222]037
2026-04-23 16:18:59 FLIGHT FINISHED037

 DADOS DO ACARS

DATA IAS GS ALTITUDE COMBUSTÍVEL USADO OAT FASE DO VOO
2026-04-23 14:25:39 25 26 73 0 15 BOARDING
2026-04-23 14:26:39 124 125 481 1 14 TAXI TO THE RWY
2026-04-23 14:27:39 144 148 1110 2 12 CLIMBING
2026-04-23 14:28:39 147 152 1818 2 11 CLIMBING
2026-04-23 14:29:39 145 152 2518 3 10 CLIMBING
2026-04-23 14:30:40 142 150 3204 4 8 CLIMBING
2026-04-23 14:31:40 152 161 3414 5 8 CLIMBING
2026-04-23 14:32:40 154 163 3424 6 8 CRUISE
2026-04-23 14:33:40 155 164 3424 7 8 CRUISE
2026-04-23 14:34:40 155 164 3421 8 8 CRUISE
2026-04-23 14:35:40 153 162 3419 8 8 CRUISE
2026-04-23 14:36:40 152 161 3418 9 8 CRUISE
2026-04-23 14:37:40 154 163 3421 10 8 CRUISE
2026-04-23 14:38:40 156 165 3424 11 8 CRUISE
2026-04-23 14:39:41 153 162 3419 12 8 CRUISE
2026-04-23 14:40:41 155 164 3427 13 8 CRUISE
2026-04-23 14:41:41 154 163 3420 13 8 CRUISE
2026-04-23 14:42:41 156 166 3420 14 8 CRUISE
2026-04-23 14:43:41 154 163 3420 15 8 CRUISE
2026-04-23 14:44:41 153 162 3419 16 8 CRUISE
2026-04-23 14:45:41 152 161 3418 17 8 CRUISE
2026-04-23 14:46:41 154 163 3421 18 8 CRUISE
2026-04-23 14:47:41 157 167 3432 19 8 CRUISE
2026-04-23 14:48:41 154 164 3421 19 8 CRUISE
2026-04-23 14:49:42 155 164 3424 20 8 CRUISE
2026-04-23 14:50:42 152 162 3419 21 8 CRUISE
2026-04-23 14:51:42 152 161 3419 22 8 CRUISE
2026-04-23 14:52:42 152 162 3381 23 8 CRUISE
2026-04-23 14:53:42 152 162 3383 24 8 CRUISE
2026-04-23 14:54:42 153 162 3384 24 8 CRUISE
2026-04-23 14:55:42 154 164 3385 25 8 CRUISE
2026-04-23 14:56:42 153 163 3385 26 8 CRUISE
2026-04-23 14:57:42 152 162 3384 27 8 CRUISE
2026-04-23 14:58:42 152 162 3383 28 8 CRUISE
2026-04-23 14:59:43 157 167 3398 29 8 CRUISE
2026-04-23 15:00:43 155 165 3386 30 8 CRUISE
2026-04-23 15:01:43 155 164 3391 30 8 CRUISE
2026-04-23 15:02:43 155 164 3390 31 8 CRUISE
2026-04-23 15:03:43 155 165 3386 32 8 CRUISE
2026-04-23 15:04:43 157 167 3394 33 8 CRUISE
2026-04-23 15:05:43 153 163 3386 34 8 CRUISE
2026-04-23 15:06:43 155 165 3389 35 8 CRUISE
2026-04-23 15:07:43 155 165 3396 35 8 CRUISE
2026-04-23 15:08:43 156 165 3393 36 8 CRUISE
2026-04-23 15:09:43 154 164 3387 37 8 CRUISE
2026-04-23 15:10:44 155 165 3396 38 8 CRUISE
2026-04-23 15:11:44 153 162 3384 39 8 CRUISE
2026-04-23 15:12:44 153 163 3385 40 8 CRUISE
2026-04-23 15:13:44 153 162 3388 40 8 CRUISE
2026-04-23 15:14:44 152 162 3384 41 8 CRUISE
2026-04-23 15:15:44 152 162 3384 42 8 CRUISE
2026-04-23 15:16:44 152 162 3384 43 8 CRUISE
2026-04-23 15:17:44 156 166 3396 44 8 CRUISE
2026-04-23 15:18:44 153 162 3383 45 8 CRUISE
2026-04-23 15:19:45 153 163 3382 46 8 CRUISE
2026-04-23 15:20:45 153 162 3385 46 8 CRUISE
2026-04-23 15:21:45 154 164 3387 47 8 CRUISE
2026-04-23 15:22:45 154 164 3386 48 8 CRUISE
2026-04-23 15:23:45 154 164 3357 49 8 CRUISE
2026-04-23 15:24:45 153 161 3275 50 8 CRUISE
2026-04-23 15:25:45 155 163 3280 51 8 CRUISE
2026-04-23 15:26:45 154 162 3281 51 8 CRUISE
2026-04-23 15:27:45 153 161 3277 52 8 CRUISE
2026-04-23 15:28:45 154 162 3278 53 8 CRUISE
2026-04-23 15:29:46 154 162 3277 54 8 CRUISE
2026-04-23 15:30:46 153 161 3277 55 8 CRUISE
2026-04-23 15:31:46 154 162 3284 56 8 CRUISE
2026-04-23 15:32:46 155 163 3284 57 9 CRUISE
2026-04-23 15:33:46 155 163 3283 57 9 CRUISE
2026-04-23 15:34:46 154 162 3282 58 9 CRUISE
2026-04-23 15:35:46 154 162 3280 59 9 CRUISE
2026-04-23 15:36:46 156 162 3143 60 9 CRUISE
2026-04-23 15:37:46 154 160 3119 61 9 CRUISE
2026-04-23 15:38:46 154 160 3123 62 9 CRUISE
2026-04-23 15:39:47 156 162 3123 63 9 CRUISE
2026-04-23 15:40:47 154 161 3122 63 9 CRUISE
2026-04-23 15:41:47 154 160 3119 64 9 CRUISE
2026-04-23 15:42:47 154 160 3123 65 9 CRUISE
2026-04-23 15:43:47 154 160 3122 66 9 CRUISE
2026-04-23 15:44:47 155 161 3119 67 8 CRUISE
2026-04-23 15:45:47 155 162 3123 68 9 CRUISE
2026-04-23 15:46:47 154 160 3121 69 8 CRUISE
2026-04-23 15:47:47 155 161 3121 69 9 CRUISE
2026-04-23 15:48:47 155 161 3121 70 9 CRUISE
2026-04-23 15:49:48 153 159 3120 71 9 CRUISE
2026-04-23 15:50:48 153 159 3120 72 9 CRUISE
2026-04-23 15:51:48 154 161 3127 73 9 CRUISE
2026-04-23 15:52:48 153 159 3118 74 8 CRUISE
2026-04-23 15:53:48 154 160 3119 74 8 CRUISE
2026-04-23 15:54:48 154 160 3121 75 8 CRUISE
2026-04-23 15:55:48 154 163 3025 76 9 CRUISE
2026-04-23 15:56:48 154 162 3029 77 9 CRUISE
2026-04-23 15:57:48 154 163 3029 78 9 CRUISE
2026-04-23 15:58:49 154 162 3028 79 8 CRUISE
2026-04-23 15:59:49 153 162 3028 80 8 CRUISE
2026-04-23 16:00:49 154 162 3029 81 8 CRUISE
2026-04-23 16:01:49 153 162 3027 81 8 CRUISE
2026-04-23 16:02:49 154 161 2885 82 9 CRUISE
2026-04-23 16:03:49 154 161 2891 83 9 CRUISE
2026-04-23 16:04:49 154 161 2891 84 9 CRUISE
2026-04-23 16:05:49 154 161 2892 85 9 CRUISE
2026-04-23 16:06:49 154 161 2892 86 9 CRUISE
2026-04-23 16:07:50 154 161 2891 87 9 CRUISE
2026-04-23 16:08:50 155 161 2894 87 9 CRUISE
2026-04-23 16:09:50 155 161 2893 88 9 CRUISE
2026-04-23 16:10:50 153 160 2891 89 9 CRUISE
2026-04-23 16:11:50 155 162 2897 90 9 CRUISE
2026-04-23 16:12:50 157 165 2811 91 9 CRUISE
2026-04-23 16:13:50 157 164 2275 92 10 CRUISE
2026-04-23 16:14:50 159 164 1515 92 12 CRUISE
2026-04-23 16:15:50 148 152 1475 93 12 LANDING
2026-04-23 16:16:51 67 65 437 93 14 LANDING
2026-04-23 16:17:51 50 49 36 93 15 LANDING
2026-04-23 16:18:51 0 0 37 94 15 LANDED - VS: -203 ft/min